Regional Weather Roundup
Issued by NWS

Home | Current Version | Previous Version | Graphics & Text | Print | Product List | Glossary Off
Versions: 1 2 3 4 5 6 7 8 9 10 11 12 13 14 15 16 17 18 19 20 21 22 23 24 25 26 27 28 29 30 31 32 33 34 35 36 37 38 39 40 41 42 43 44 45 46 47 48 49 50

000
ASUS43 KMKX 020711
RWRWI

WISCONSIN REGIONAL WEATHER ROUNDUP
NATIONAL WEATHER SERVICE MILWAUKEE/SULLIVAN WI
200 AM CDT SAT AUG 02 2014

NOTE: "FAIR" INDICATES FEW OR NO CLOUDS BELOW 12,000 FEET WITH NO
SIGNIFICANT WEATHER AND/OR OBSTRUCTIONS TO VISIBILITY.

WIZ001-002-006>008-014>016-023>028-020800-
NORTHWEST WISCONSIN

CITY           SKY/WX    TMP DP  RH WIND       PRES   REMARKS
SUPERIOR ARPT  CLEAR     55  52  90 CALM      30.11S
ASHLAND        MOCLDY    56  55  97 CALM      30.11S
HAYWARD        CLEAR     58  56  93 CALM      30.12R
SIREN          PTCLDY    59  57  93 CALM      30.10R
RICE LAKE      PTCLDY    58  57  95 CALM      30.12S FOG
LADYSMITH      CLEAR     59  57  94 CALM      30.13S
EAU CLAIRE     CLEAR     62  60  93 CALM      30.09F
MENOMONIE      SUNNY     64  61  92 CALM      30.09F
NEW RICHMOND   CLEAR     63  58  83 CALM      30.10S
OSCEOLA        CLEAR     62  61  97 CALM      30.11S
$$

WIZ003>005-009-010-017-018-020800-
NORTH CENTRAL WISCONSIN

CITY           SKY/WX    TMP DP  RH WIND       PRES   REMARKS
WOODRUFF       CLEAR     52  43  72 CALM      30.13F
RHINELANDER    CLEAR     51  50  96 CALM      30.13F FOG
EAGLE RIVER    FOG       49  49 100 CALM      30.13F VSB 1/2
LAND O LAKES   CLEAR     47  47 100 CALM      30.14F FOG
PHILLIPS       PTCLDY    55  54  95 CALM      30.12F
TOMAHAWK         N/A     49  47  96 CALM      30.13F FOG
MEDFORD        CLEAR     55  55  99 CALM      30.12F FOG
MERRILL        FOG       52  52 100 CALM      30.12S VSB 1/4
$$

WIZ029-030-035-036-043>047-020800-
CENTRAL WISCONSIN

CITY           SKY/WX    TMP DP  RH WIND       PRES   REMARKS
WAUSAU         CLEAR     58  57  97 CALM      30.10S FOG
MOSINEE        FOG       55  55 100 CALM      30.13S VSB 3/4
MARSHFIELD     CLEAR     56  54  93 CALM      30.12S FOG
STEVENS POINT  CLEAR     52  51  97 CALM      30.12S
WAUPACA        CLEAR     56  54  92 SW3       30.12S
WAUTOMA        CLEAR     53  53 100 CALM      30.12F FOG
WISC RAPIDS    CLEAR     57  55  93 S3        30.13S FOG
CAMP DOUGLAS   CLEAR     55  55 100 CALM      30.12S
$$

WIZ011>013-019>022-031-037>040-048>050-020800-
NORTHEAST WISCONSIN

CITY           SKY/WX    TMP DP  RH WIND       PRES   REMARKS
ANTIGO         CLEAR     52  52  99 CALM      30.12F FOG
STURGEON BAY   CLEAR     59  55  88 CALM      30.09F
GREEN BAY      CLEAR     61  57  87 CALM      30.09F
MANITOWOC      CLEAR     63  59  87 NW3       30.09F
APPLETON       CLEAR     57  54  88 W8        30.11S
CLINTONVILLE   CLEAR     55  54  94 CALM      30.09F FOG
OSHKOSH        CLEAR     61  57  87 SW5       30.10F
$$

WIZ032>034-041-042-053>061-020800-
SOUTHWEST WISCONSIN

CITY           SKY/WX    TMP DP  RH WIND       PRES   REMARKS
LA CROSSE      CLEAR     64  59  83 SE6       30.10S
SPARTA         CLEAR     56  55  96 CALM      30.12R
VIROQUA        FAIR      62  53  74 CALM      30.13S
BOSCOBEL       CLEAR     57  53  86 CALM      30.11F
PRAIRIE DU CHI CLEAR     62  54  74 CALM      30.11R
PLATTEVILLE    FAIR      60  56  89 NE3       30.12R
$$

WIZ056-057-062-063-064-067-068-020800-
SOUTH CENTRAL WISCONSIN

CITY           SKY/WX    TMP DP  RH WIND       PRES   REMARKS
BARABOO/DELLS  CLEAR     58  55  88 CALM      30.11F
LONE ROCK      CLEAR     61  56  83 CALM      30.11F
WATERTOWN      CLEAR     58  58  97 CALM      30.10F
MADISON        CLEAR     59  57  93 N3        30.10F
MIDDLETON      FAIR      59  56  91 CALM      30.11S
MONROE         CLEAR     61  55  82 NW6       30.10S
JANESVILLE     CLEAR     57  54  88 NW6       30.09S
$$

WIZ051-052-058>065-066-070>072-020800-
SOUTHEAST WISCONSIN

CITY           SKY/WX    TMP DP  RH WIND       PRES   REMARKS
MILWAUKEE      PTCLDY    61  55  81 CALM      30.09S
WAUKESHA       CLEAR     59  55  88 W7        30.10F
MILWAUKEE/TIMM CLEAR     59  54  82 NW5       30.10S
RACINE         CLEAR     59  56  89 NW6       30.10F
BURLINGTON     CLEAR     54  53  99 CALM      30.09S
KENOSHA        CLEAR     56  55  97 CALM      30.10R
FOND DU LAC    CLEAR     56  54  93 CALM      30.11S
SHEBOYGAN      CLEAR     57  54  89 W5        30.09F
WEST BEND      CLEAR     59  54  82 CALM      30.10S
JUNEAU         CLEAR     60  55  84 W5        30.12S
$$

LSZ147-162-020800-
LAKE SUPERIOR

STATION/POSITION TIME  TEMP    WIND        PRES    WAVE
                       AIR SEA DIR/SP/G            HT/PER
                 (UTC) (F)     (DEG/KT/KT) (MB)    (FT/S)
W MID LAKE BUOY  0650   49 46  330/  6/  8 1019.8S   0
PORT WING        0640   56     150/  2/  3 1019.6R
SAXON HARBOR     0600             CALM     1019.3S
$$

LMZ867-665-643>646-020800-
LAKE MICHIGAN

STATION/POSITION TIME  TEMP    WIND        PRES    WAVE
                       AIR SEA DIR/SP/G            HT/PER
                 (UTC) (F)     (DEG/KT/KT) (MB)    (FT/S)
N MID LAKE BUOY  0650   61 59   20/  6/  8 1018.5F   0
NORTHPORT PIER   0600   64     100/  4/  5 1019.0F
SISTER BAY       0556   62     140/  5/  9   N/A
ALGOMA LAKESHORE 0636             CALM       N/A
KEWAUNEE LAKESHO 0600   58     290/  1/  2 1018.3R
SHEBOYGAN LAKESH 0700   68     270/  9/ 11 1018.8F
PORT WASHINGTON  0600   65     290/  6/ 11 1019.3F
ATWATER BUOY     0700   64     230/  4     1019.8F
MILWAUKEE LAKESH 0600   65     180/  2/  2   N/A
S MID LAKE BUOY  0650   65 63  110/  2/  2 1018.7F   1
KENOSHA   LAKESH 0700   63     280/  5/  6 1018.6S
$$

TC  - TEMPERATURE IN CELSIUS
VSB - VISIBILITY IN STATUTE MILES
WCI - WIND CHILL INDEX
HX  - HEAT INDEX




USA.gov is the U.S. government's official web portal to all federal, state and local government web resources and services.